Location: Unspecified
(0.0000°N, 0.0000°E)
Time: 13:26:08
(UTC+00:00)

Explorer 11/Cluster Stage 4 - Visible Passes

Search period start: 20 July 2019 00:00
Search period end: 30 July 2019 00:00
Orbit: 467 x 1260 km, 28.8° (Epoch: 19 July)

Date Brightness Start Highest point End Pass type
(mag) Time Alt. Az. Time Alt. Az. Time Alt. Az.
21 Jul 7.9 19:03:04 10° SSE 19:03:40 11° SSE 19:03:40 11° SSE visible
22 Jul 7.5 18:51:48 10° S 18:53:51 14° SSE 18:54:33 14° SE visible
23 Jul 7.2 18:40:50 10° SSW 18:43:23 18° SSE 18:45:31 12° ESE visible
23 Jul 8.8 20:27:43 10° WSW 20:27:45 10° WSW 20:27:45 10° WSW visible
24 Jul 9.5 05:37:29 10° NNW 05:44:04 26° NNE 05:50:35 10° E visible
24 Jul 6.8 18:30:00 10° SSW 18:32:55 23° SSE 18:35:58 10° E visible
24 Jul 8.1 20:17:29 10° W 20:18:50 20° W 20:18:50 20° W visible
25 Jul 10.0 03:42:04 10° NNE 03:43:03 10° NNE 03:44:03 10° NNE visible
25 Jul 9.3 05:26:28 10° NNW 05:33:22 30° NNE 05:40:18 10° E visible
25 Jul 7.6 20:07:21 10° W 20:09:59 28° NW 20:09:59 28° NW visible
26 Jul 9.8 03:30:05 10° N 03:32:32 12° NNE 03:35:03 10° NE visible
26 Jul 9.0 05:15:29 10° NW 05:22:38 35° NNE 05:29:56 10° E visible
26 Jul 7.8 19:57:19 10° W 20:00:14 22° NNW 20:01:08 20° N visible
27 Jul 9.7 03:18:44 10° N 03:21:59 13° NNE 03:25:23 10° NE visible
27 Jul 8.8 05:04:35 10° NW 05:11:52 40° NNE 05:19:29 10° E visible
27 Jul 8.3 19:47:26 10° WNW 19:49:49 16° NNW 19:52:13 10° NNE visible
28 Jul 9.6 03:07:33 10° N 03:11:24 15° NNE 03:15:29 10° ENE visible
28 Jul 8.5 04:53:44 10° NW 05:01:05 47° NNE 05:08:57 10° ESE visible
28 Jul 8.5 19:37:51 10° NW 19:39:24 12° NNW 19:40:58 10° N visible
29 Jul 9.4 02:58:43 15° N 03:00:47 17° NNE 03:05:26 10° ENE visible
29 Jul 8.1 04:42:56 10° NW 04:50:17 54° NNE 04:58:20 10° ESE visible
